�������l�o���
Date,Time,MP-1(��Sv/h),MP-2(��Sv/h),MP-3(��Sv/h),MP-4(��Sv/h),MP-5(��Sv/h),MP-6(��Sv/h),MP-7(��Sv/h),MP-8(��Sv/h),����,����(m/s),���J
2019/06/21,00:00,0.752,1.071,0.726,1.313,0.964,0.429,0.744,0.708,�k��,0.9,��
2019/06/21,00:10,0.751,1.070,0.727,1.313,0.965,0.430,0.744,0.707,�k�k��,1.4,��
2019/06/21,00:20,0.752,1.072,0.729,1.313,0.962,0.429,0.746,0.707,�k�k��,2.0,��
2019/06/21,00:30,0.752,1.069,0.728,1.314,0.963,0.428,0.744,0.708,�k�k��,2.7,��
2019/06/21,00:40,0.752,1.071,0.727,1.316,0.963,0.428,0.743,0.708,�k�k��,2.3,��
2019/06/21,00:50,0.751,1.070,0.727,1.315,0.963,0.431,0.744,0.707,�k,2.2,��
2019/06/21,01:00,0.750,1.069,0.729,1.314,0.963,0.430,0.744,0.708,�k,1.5,��
2019/06/21,01:10,0.752,1.068,0.728,1.314,0.964,0.429,0.744,0.707,�k�k��,1.5,��
2019/06/21,01:20,0.753,1.069,0.728,1.315,0.963,0.431,0.745,0.709,�k��,1.4,��
2019/06/21,01:30,0.750,1.073,0.727,1.313,0.964,0.430,0.744,0.709,�k�k��,1.9,��
2019/06/21,01:40,0.751,1.067,0.726,1.313,0.962,0.430,0.743,0.707,�k,1.6,��
2019/06/21,01:50,0.750,1.070,0.727,1.314,0.964,0.429,0.744,0.707,�k,1.9,��
2019/06/21,02:00,0.752,1.070,0.728,1.313,0.961,0.430,0.745,0.707,�k,1.9,��
2019/06/21,02:10,0.752,1.069,0.727,1.314,0.961,0.429,0.744,0.707,�k,2.0,��
2019/06/21,02:20,0.753,1.068,0.727,1.313,0.961,0.431,0.743,0.705,�k,2.2,��
2019/06/21,02:30,0.751,1.068,0.727,1.315,0.962,0.431,0.746,0.708,�k,2.5,��
2019/06/21,02:40,0.750,1.069,0.727,1.312,0.963,0.428,0.744,0.708,�k,1.7,��
2019/06/21,02:50,0.751,1.068,0.725,1.312,0.963,0.428,0.744,0.708,�k,1.1,��
2019/06/21,03:00,0.752,1.068,0.727,1.314,0.963,0.429,0.743,0.707,���쓌,0.6,��
2019/06/21,03:10,0.751,1.068,0.726,1.316,0.963,0.428,0.741,0.708,�k��,0.6,��
2019/06/21,03:20,0.751,1.071,0.726,1.314,0.962,0.429,0.743,0.707,���k��,0.6,��
2019/06/21,03:30,0.751,1.070,0.728,1.310,0.962,0.431,0.744,0.706,-,CALM,��
2019/06/21,03:40,0.751,1.067,0.728,1.314,0.963,0.430,0.745,0.705,��,0.6,��
2019/06/21,03:50,0.751,1.068,0.727,1.314,0.964,0.429,0.744,0.708,-,CALM,��
2019/06/21,04:00,0.751,1.070,0.727,1.313,0.963,0.428,0.744,0.707,���k��,0.6,��
2019/06/21,04:10,0.751,1.069,0.725,1.313,0.962,0.430,0.746,0.708,�k�k��,0.6,��
2019/06/21,04:20,0.750,1.067,0.727,1.313,0.963,0.430,0.745,0.708,�k��,1.2,��
2019/06/21,04:30,0.751,1.069,0.728,1.312,0.962,0.428,0.745,0.707,�k�k��,1.2,��
2019/06/21,04:40,0.751,1.068,0.725,1.310,0.962,0.429,0.745,0.707,�k�k��,1.9,��
2019/06/21,04:50,0.750,1.071,0.724,1.315,0.962,0.430,0.743,0.707,�k�k��,2.2,��
2019/06/21,05:00,0.749,1.069,0.726,1.315,0.962,0.430,0.745,0.707,�k�k��,2.0,��
2019/06/21,05:10,0.749,1.067,0.726,1.313,0.962,0.428,0.744,0.707,�k�k��,2.6,��
2019/06/21,05:20,0.749,1.065,0.726,1.311,0.960,0.429,0.744,0.706,�k�k��,1.5,��
2019/06/21,05:30,0.751,1.068,0.727,1.314,0.962,0.429,0.743,0.706,�k�k��,1.9,��
2019/06/21,05:40,0.748,1.069,0.725,1.313,0.965,0.427,0.745,0.707,�k�k��,1.7,��
2019/06/21,05:50,0.748,1.066,0.726,1.312,0.964,0.429,0.744,0.706,�k��,1.7,��
2019/06/21,06:00,0.747,1.068,0.727,1.312,0.964,0.429,0.745,0.706,�k��,1.4,��
2019/06/21,06:10,0.750,1.068,0.725,1.312,0.964,0.428,0.744,0.704,��,0.9,��
2019/06/21,06:20,0.751,1.068,0.727,1.311,0.962,0.429,0.743,0.707,���k��,1.4,��
2019/06/21,06:30,0.748,1.067,0.725,1.312,0.963,0.429,0.744,0.706,�k��,1.5,��
2019/06/21,06:40,0.749,1.067,0.724,1.314,0.962,0.430,0.745,0.705,�k�k��,1.5,��
2019/06/21,06:50,0.750,1.069,0.725,1.313,0.962,0.428,0.744,0.708,�k��,1.2,��
2019/06/21,07:00,0.749,1.068,0.724,1.314,0.963,0.429,0.743,0.708,�k��,1.5,��
2019/06/21,07:10,0.750,1.068,0.728,1.313,0.960,0.429,0.743,0.707,�k��,1.2,��
2019/06/21,07:20,0.748,1.068,0.726,1.311,0.963,0.430,0.744,0.707,��,1.4,��
2019/06/21,07:30,0.748,1.067,0.725,1.312,0.964,0.429,0.744,0.706,�k,0.9,��
2019/06/21,07:40,0.749,1.067,0.727,1.309,0.962,0.428,0.745,0.705,-,CALM,��
2019/06/21,07:50,0.748,1.066,0.725,1.310,0.964,0.429,0.744,0.706,�k,0.8,��
2019/06/21,08:00,0.750,1.065,0.726,1.310,0.964,0.429,0.745,0.705,�k�k��,0.8,��
2019/06/21,08:10,0.751,1.068,0.726,1.312,0.963,0.428,0.743,0.705,�k,0.8,��
2019/06/21,08:20,0.749,1.065,0.724,1.312,0.960,0.428,0.744,0.706,-,CALM,��
2019/06/21,08:30,0.748,1.065,0.725,1.312,0.961,0.428,0.744,0.705,-,CALM,��
2019/06/21,08:40,0.750,1.067,0.728,1.312,0.963,0.428,0.743,0.705,���쓌,0.9,��
2019/06/21,08:50,0.749,1.064,0.727,1.310,0.962,0.427,0.743,0.706,��,0.9,��
2019/06/21,09:00,0.751,1.066,0.727,1.311,0.963,0.428,0.744,0.708,�쐼,0.9,��
2019/06/21,09:10,0.750,1.062,0.725,1.311,0.963,0.428,0.745,0.705,���쓌,1.2,��
2019/06/21,09:20,0.750,1.063,0.725,1.314,0.960,0.428,0.744,0.705,��,1.4,��
2019/06/21,09:30,0.752,1.062,0.725,1.311,0.961,0.428,0.743,0.707,��,1.5,��
2019/06/21,09:40,0.749,1.062,0.725,1.312,0.961,0.428,0.742,0.707,��,0.9,��
2019/06/21,09:50,0.752,1.063,0.725,1.312,0.960,0.428,0.744,0.706,�쓌,1.2,��
2019/06/21,10:00,0.752,1.064,0.726,1.311,0.960,0.427,0.744,0.706,��쓌,2.3,��
2019/06/21,10:10,0.749,1.064,0.726,1.313,0.962,0.429,0.743,0.704,��쓌,2.8,��
2019/06/21,10:20,0.749,1.064,0.727,1.311,0.961,0.429,0.745,0.704,��쓌,2.6,��
2019/06/21,10:30,0.752,1.061,0.723,1.312,0.962,0.428,0.744,0.705,�쓌,2.0,��
2019/06/21,10:40,0.750,1.061,0.726,1.311,0.962,0.428,0.744,0.705,��쓌,1.7,�L
2019/06/21,10:50,0.749,1.062,0.723,1.311,0.961,0.427,0.746,0.705,��쓌,2.0,�L
2019/06/21,11:00,0.750,1.062,0.724,1.313,0.961,0.429,0.744,0.705,��쓌,2.2,��
2019/06/21,11:10,0.750,1.066,0.725,1.313,0.959,0.428,0.746,0.704,��쓌,2.2,��
2019/06/21,11:20,0.750,1.065,0.726,1.311,0.962,0.428,0.743,0.705,��쓌,1.7,��
2019/06/21,11:30,0.751,1.065,0.726,1.314,0.961,0.429,0.745,0.705,�쓌,2.0,��
2019/06/21,11:40,0.750,1.067,0.723,1.313,0.963,0.428,0.745,0.705,�쓌,2.6,��
2019/06/21,11:50,0.751,1.064,0.726,1.314,0.961,0.428,0.744,0.706,���쓌,2.0,��
2019/06/21,12:00,0.752,1.066,0.724,1.314,0.962,0.429,0.748,0.704,�쓌,1.7,��
2019/06/21,12:10,0.751,1.066,0.723,1.309,0.963,0.428,0.745,0.705,�쓌,2.2,��
2019/06/21,12:20,0.752,1.067,0.724,1.310,0.962,0.428,0.746,0.706,�쓌,2.6,��
2019/06/21,12:30,0.752,1.069,0.725,1.310,0.962,0.428,0.744,0.708,���쓌,3.1,��
2019/06/21,12:40,0.751,1.069,0.725,1.310,0.964,0.428,0.746,0.705,�쓌,3.0,��
2019/06/21,12:50,0.752,1.068,0.725,1.311,0.963,0.430,0.746,0.707,�쓌,3.5,��
2019/06/21,13:00,0.752,1.070,0.727,1.313,0.964,0.427,0.744,0.706,��쓌,4.0,��
2019/06/21,13:10,0.752,1.068,0.726,1.310,0.963,0.430,0.745,0.705,��쓌,4.2,��
2019/06/21,13:20,0.751,1.068,0.726,1.311,0.962,0.429,0.746,0.705,��쓌,3.7,��
2019/06/21,13:30,0.751,1.068,0.725,1.310,0.964,0.430,0.748,0.705,��쓌,4.1,��
2019/06/21,13:40,0.751,1.069,0.726,1.311,0.966,0.428,0.747,0.706,��쓌,5.8,��
2019/06/21,13:50,0.753,1.069,0.727,1.311,0.965,0.429,0.748,0.707,��쓌,5.3,��
2019/06/21,14:00,0.753,1.069,0.727,1.313,0.965,0.431,0.748,0.705,��쓌,6.5,��
2019/06/21,14:10,0.754,1.070,0.727,1.311,0.966,0.431,0.748,0.706,��쓌,7.3,��
2019/06/21,14:20,0.755,1.069,0.728,1.312,0.966,0.430,0.746,0.706,��쓌,6.6,��
2019/06/21,14:30,0.753,1.069,0.727,1.310,0.966,0.430,0.747,0.706,��쓌,6.6,��
2019/06/21,14:40,0.753,1.071,0.727,1.309,0.966,0.432,0.747,0.708,��쓌,6.9,��
2019/06/21,14:50,0.754,1.069,0.727,1.313,0.965,0.430,0.745,0.705,��쓌,7.4,��
2019/06/21,15:00,0.754,1.071,0.728,1.313,0.966,0.431,0.746,0.706,��쓌,7.0,��
2019/06/21,15:10,0.753,1.072,0.729,1.310,0.966,0.431,0.748,0.707,��쓌,7.9,��
2019/06/21,15:20,0.754,1.070,0.728,1.312,0.967,0.431,0.745,0.706,��쓌,7.6,��
2019/06/21,15:30,0.754,1.071,0.727,1.313,0.965,0.430,0.748,0.707,��쓌,7.1,��
2019/06/21,15:40,0.756,1.072,0.728,1.314,0.967,0.431,0.745,0.707,��쓌,6.5,��
2019/06/21,15:50,0.753,1.069,0.728,1.313,0.965,0.429,0.747,0.708,��쓌,9.6,��
2019/06/21,16:00,0.755,1.072,0.728,1.315,0.968,0.433,0.745,0.707,��쓌,7.8,��
2019/06/21,16:10,0.755,1.073,0.727,1.315,0.966,0.432,0.746,0.705,��쓌,8.8,��
2019/06/21,16:20,0.754,1.074,0.728,1.315,0.967,0.430,0.746,0.705,��쓌,6.8,��
2019/06/21,16:30,0.756,1.074,0.727,1.315,0.967,0.433,0.747,0.707,��,7.1,��
2019/06/21,16:40,0.755,1.073,0.726,1.316,0.964,0.431,0.745,0.705,��쓌,7.7,�L
2019/06/21,16:50,0.755,1.072,0.728,1.315,0.967,0.433,0.746,0.707,��,6.4,��
2019/06/21,17:00,0.755,1.073,0.726,1.317,0.968,0.432,0.747,0.706,��,6.0,��
2019/06/21,17:10,0.754,1.072,0.728,1.316,0.968,0.433,0.745,0.707,��,5.6,��
2019/06/21,17:20,0.753,1.073,0.727,1.317,0.968,0.433,0.747,0.705,��,6.8,��
2019/06/21,17:30,0.755,1.073,0.727,1.315,0.967,0.432,0.746,0.704,��,8.5,��
2019/06/21,17:40,0.755,1.072,0.728,1.317,0.967,0.432,0.747,0.708,��쓌,9.4,��
2019/06/21,17:50,0.754,1.075,0.728,1.318,0.967,0.431,0.746,0.707,��,9.0,��
2019/06/21,18:00,0.755,1.072,0.727,1.317,0.969,0.433,0.746,0.708,��,8.4,��
2019/06/21,18:10,0.756,1.073,0.728,1.319,0.970,0.432,0.746,0.707,��,7.3,��
2019/06/21,18:20,0.755,1.074,0.730,1.318,0.969,0.432,0.746,0.706,��,7.5,��
2019/06/21,18:30,0.754,1.073,0.729,1.319,0.966,0.433,0.746,0.708,��,7.5,��
2019/06/21,18:40,0.755,1.073,0.730,1.316,0.968,0.433,0.746,0.707,��,6.9,��
2019/06/21,18:50,0.754,1.073,0.731,1.318,0.966,0.433,0.746,0.708,��,8.0,��
2019/06/21,19:00,0.755,1.075,0.729,1.319,0.968,0.434,0.746,0.709,��,6.6,��
2019/06/21,19:10,0.756,1.074,0.732,1.319,0.965,0.432,0.749,0.709,��,7.0,��
2019/06/21,19:20,0.753,1.075,0.732,1.318,0.966,0.434,0.748,0.709,��,6.0,��
2019/06/21,19:30,0.753,1.075,0.732,1.315,0.966,0.433,0.747,0.708,��,6.8,��
2019/06/21,19:40,0.754,1.075,0.729,1.320,0.969,0.433,0.747,0.706,��,6.3,��
2019/06/21,19:50,0.754,1.075,0.732,1.319,0.969,0.432,0.748,0.708,��,6.1,��
2019/06/21,20:00,0.754,1.078,0.731,1.320,0.969,0.434,0.747,0.710,��,6.7,��
2019/06/21,20:10,0.754,1.078,0.732,1.322,0.970,0.433,0.749,0.710,��,6.3,��
2019/06/21,20:20,0.755,1.078,0.729,1.317,0.969,0.433,0.748,0.709,��,6.9,��
2019/06/21,20:30,0.756,1.076,0.732,1.319,0.970,0.433,0.747,0.711,��,6.6,��
2019/06/21,20:40,0.756,1.074,0.730,1.318,0.967,0.434,0.748,0.709,��,7.3,��
2019/06/21,20:50,0.757,1.074,0.733,1.320,0.970,0.434,0.749,0.710,��,6.8,��
2019/06/21,21:00,0.757,1.076,0.733,1.318,0.969,0.433,0.748,0.710,��,8.0,��
2019/06/21,21:10,0.757,1.078,0.732,1.321,0.967,0.433,0.747,0.709,��,8.1,��
2019/06/21,21:20,0.757,1.077,0.733,1.322,0.969,0.434,0.747,0.709,��,7.7,��
2019/06/21,21:30,0.756,1.077,0.733,1.317,0.970,0.433,0.749,0.708,��,6.2,��
2019/06/21,21:40,0.757,1.079,0.732,1.321,0.970,0.433,0.747,0.710,��,7.1,��
2019/06/21,21:50,0.756,1.079,0.731,1.318,0.969,0.433,0.749,0.709,��,7.4,��
2019/06/21,22:00,0.755,1.077,0.731,1.320,0.970,0.432,0.750,0.709,��,7.1,��
2019/06/21,22:10,0.755,1.078,0.730,1.320,0.970,0.433,0.749,0.709,��쓌,7.4,��
2019/06/21,22:20,0.755,1.077,0.731,1.318,0.967,0.433,0.748,0.708,��,6.2,��
2019/06/21,22:30,0.755,1.077,0.732,1.318,0.968,0.434,0.749,0.707,��,6.2,��
2019/06/21,22:40,0.755,1.079,0.729,1.317,0.969,0.434,0.748,0.710,��,7.6,��
2019/06/21,22:50,0.757,1.075,0.733,1.319,0.967,0.434,0.750,0.707,��,7.4,��
2019/06/21,23:00,0.755,1.078,0.732,1.319,0.968,0.435,0.747,0.710,��,7.8,��
2019/06/21,23:10,0.755,1.078,0.733,1.317,0.969,0.433,0.748,0.708,��,7.4,��
2019/06/21,23:20,0.753,1.076,0.732,1.320,0.969,0.433,0.748,0.710,��,6.2,��
2019/06/21,23:30,0.751,1.077,0.732,1.319,0.968,0.434,0.749,0.710,��,6.8,��
2019/06/21,23:40,0.754,1.076,0.730,1.319,0.967,0.433,0.747,0.710,��,6.5,��
2019/06/21,23:50,0.754,1.077,0.733,1.319,0.968,0.432,0.747,0.710,��,7.3,��
